CYMH Weather Reports


Display with metric or nautical units.
time (UTC)temp
F
wind
direction
speed
MPH
gust
MPH
rain 1hr
in
rain 24hr
in
rain mn
in
humidity
%
barometer
mb
20191021094511 41 320 20.0 32.0 0.00 0.00 0.00 80 1009.0
20191021094010 41 320 20.0 32.0 0.00 0.00 0.00 80 1009.0
20191021093510 41 320 20.0 32.0 0.00 0.00 0.00 80 1009.0
20191021093140 41 320 20.0 32.0 0.00 0.00 0.00 80 1009.0
20191021092641 41 320 20.0 32.0 0.00 0.00 0.00 80 1009.0
20191021092010 41 320 20.0 32.0 0.00 0.00 0.00 80 1009.0
20191021091510 41 320 20.0 32.0 0.00 0.00 0.00 80 1009.0
20191021091031 41 320 20.0 32.0 0.00 0.00 0.00 80 1009.0
20191021090530 41 310 20.0 26.0 0.00 0.00 0.00 80 1008.0
20191021085009 41 310 20.0 26.0 0.00 0.00 0.00 80 1008.0
20191021083940 41 310 20.0 26.0 0.00 0.00 0.00 80 1008.0
20191021083032 41 310 20.0 26.0 0.00 0.00 0.00 80 1008.0
20191021081030 41 310 20.0 26.0 0.00 0.00 0.00 80 1008.0
20191021080511 41 300 20.0 30.0 0.00 0.00 0.00 80 1008.0
20191021075530 41 300 20.0 30.0 0.00 0.00 0.00 80 1008.0
20191021074640 41 300 20.0 30.0 0.00 0.00 0.00 80 1008.0
20191021074140 41 300 20.0 30.0 0.00 0.00 0.00 80 1008.0
20191021073139 41 300 20.0 30.0 0.00 0.00 0.00 80 1008.0
20191021071140 41 300 20.0 30.0 0.00 0.00 0.00 80 1008.0
20191021070509 41 300 15.0 24.0 0.00 0.00 0.00 86 1008.0
20191021065641 41 300 15.0 24.0 0.00 0.00 0.00 86 1008.0
20191021064510 41 300 15.0 24.0 0.00 0.00 0.00 86 1008.0
20191021063140 41 300 15.0 24.0 0.00 0.00 0.00 86 1008.0
20191021062510 41 300 15.0 24.0 0.00 0.00 0.00 86 1008.0
20191021061641 41 300 15.0 24.0 0.00 0.00 0.00 86 1008.0
20191021060811 41 300 15.0 24.0 0.00 0.00 0.00 86 1008.0
20191021055511 41 300 14.0 24.0 0.00 0.00 0.00 86 1008.0
20191021054511 41 300 14.0 28.0 0.00 0.00 0.00 86 1007.0
20191021053640 41 310 16.0 25.0 0.00 0.00 0.00 86 1007.0
20191021052702 41 310 16.0 25.0 0.00 0.00 0.00 86 1007.0
20191021052143 41 310 16.0 25.0 0.00 0.00 0.00 86 1007.0
20191021051034 41 310 16.0 25.0 0.00 0.00 0.00 86 1007.0
20191021045810 41 310 15.0 28.0 0.00 0.00 0.00 86 1007.0
20191021045010 41 310 15.0 28.0 0.00 0.00 0.00 86 1007.0
20191021044142 41 310 15.0 28.0 0.00 0.00 0.00 86 1007.0
20191021043531 41 310 15.0 28.0 0.00 0.00 0.00 86 1007.0
20191021042511 41 310 15.0 28.0 0.00 0.00 0.00 86 1007.0
20191021042011 41 310 15.0 28.0 0.00 0.00 0.00 86 1007.0
20191021041051 41 310 15.0 28.0 0.00 0.00 0.00 86 1007.0
20191021040642 41 310 17.0 30.0 0.00 0.00 0.00 80 1006.0
20191021040312 41 310 17.0 30.0 0.00 0.00 0.00 80 1006.0
20191021035012 41 310 17.0 30.0 0.00 0.00 0.00 80 1006.0
20191021034811 41 310 17.0 30.0 0.00 0.00 0.00 80 1006.0
20191021033030 41 300 18.0 25.0 0.00 0.00 0.00 80 1006.0
20191021032509 41 300 18.0 25.0 0.00 0.00 0.00 80 1006.0
20191021032011 41 300 18.0 25.0 0.00 0.00 0.00 80 1006.0
20191021031510 41 300 18.0 25.0 0.00 0.00 0.00 80 1006.0
20191021031010 41 300 18.0 25.0 0.00 0.00 0.00 80 1006.0
20191021030639 41 310 16.0 26.0 0.00 0.00 0.00 80 1006.0
20191021030030 41 310 16.0 26.0 0.00 0.00 0.00 80 1006.0
20191021024510 41 310 16.0 26.0 0.00 0.00 0.00 80 1006.0
20191021023810 41 310 16.0 26.0 0.00 0.00 0.00 80 1006.0
20191021023029 41 310 16.0 26.0 0.00 0.00 0.00 80 1006.0
20191021022010 41 310 16.0 26.0 0.00 0.00 0.00 80 1006.0
20191021021639 41 310 16.0 26.0 0.00 0.00 0.00 80 1006.0
20191021020511 41 310 16.0 26.0 0.00 0.00 0.00 80 1006.0
20191021020011 41 300 16.0 26.0 0.00 0.00 0.00 86 1006.0
20191021015509 41 300 16.0 26.0 0.00 0.00 0.00 86 1006.0
20191021015139 41 300 16.0 26.0 0.00 0.00 0.00 86 1006.0
20191021014510 42 310 16.0 28.0 0.00 0.00 0.00 81 1005.0
20191021014010 42 310 16.0 28.0 0.00 0.00 0.00 81 1005.0
20191021012810 42 310 16.0 28.0 0.00 0.00 0.00 81 1005.0
20191021011510 42 310 16.0 28.0 0.00 0.00 0.00 81 1005.0
20191021010509 42 310 15.0 26.0 0.00 0.00 0.00 81 1005.0
20191021005641 42 310 15.0 26.0 0.00 0.00 0.00 81 1005.0
20191021005010 42 310 15.0 26.0 0.00 0.00 0.00 81 1005.0
20191021004010 42 310 15.0 26.0 0.00 0.00 0.00 81 1005.0
20191021003640 42 310 15.0 26.0 0.00 0.00 0.00 81 1005.0
20191021002511 42 310 15.0 26.0 0.00 0.00 0.00 81 1005.0
20191021002011 42 310 15.0 26.0 0.00 0.00 0.00 81 1005.0
20191021001141 42 310 15.0 26.0 0.00 0.00 0.00 81 1005.0
20191021000511 44 310 15.0 24.0 0.00 0.00 0.00 81 1004.0
20191021000012 44 310 15.0 24.0 0.00 0.00 0.00 81 1004.0
20191020235140 44 310 15.0 24.0 0.00 0.00 0.00 81 1004.0
20191020234141 44 310 15.0 24.0 0.00 0.00 0.00 81 1004.0
20191020233011 44 300 14.0 24.0 0.00 0.00 0.00 81 1004.0
20191020232012 44 300 17.0 24.0 0.00 0.00 0.00 81 1004.0
20191020231511 44 300 17.0 24.0 0.00 0.00 0.00 81 1004.0
20191020231011 44 300 14.0 24.0 0.00 0.00 0.00 81 1004.0
20191020230511 44 300 14.0 23.0 0.00 0.00 0.00 81 1004.0
20191020225201 44 300 8.0 20.0 0.00 0.00 0.00 81 1004.0
20191020224640 44 300 8.0 20.0 0.00 0.00 0.00 81 1004.0
20191020223512 42 300 9.0 0.0 0.00 0.00 0.00 86 1004.0
20191020223012 42 300 9.0 0.0 0.00 0.00 0.00 86 1004.0
20191020222015 42 300 9.0 0.0 0.00 0.00 0.00 86 1004.0
20191020221011 42 300 9.0 0.0 0.00 0.00 0.00 86 1004.0
20191020220511 42 300 9.0 0.0 0.00 0.00 0.00 86 1004.0
20191020220013 42 300 9.0 0.0 0.00 0.00 0.00 86 1004.0
20191020214510 42 310 8.0 0.0 0.00 0.00 0.00 86 1003.0
20191020214009 42 310 8.0 0.0 0.00 0.00 0.00 86 1003.0
20191020213011 42 310 8.0 0.0 0.00 0.00 0.00 86 1003.0
20191020212139 42 300 9.0 0.0 0.00 0.00 0.00 93 1003.0
20191020211510 42 300 9.0 0.0 0.00 0.00 0.00 93 1003.0
20191020211009 42 300 9.0 0.0 0.00 0.00 0.00 93 1003.0
20191020210509 42 300 9.0 0.0 0.00 0.00 0.00 93 1003.0
20191020210012 42 310 10.0 17.0 0.00 0.00 0.00 93 1003.0
20191020205010 42 310 10.0 17.0 0.00 0.00 0.00 93 1003.0
20191020203139 42 310 10.0 17.0 0.00 0.00 0.00 93 1003.0
20191020202510 42 310 10.0 17.0 0.00 0.00 0.00 93 1003.0
20191020202159 42 310 10.0 17.0 0.00 0.00 0.00 93 1003.0
20191020201510 42 310 10.0 17.0 0.00 0.00 0.00 93 1003.0
20191020201010 42 310 9.0 0.0 0.00 0.00 0.00 93 1003.0
20191020200530 42 330 10.0 0.0 0.00 0.00 0.00 93 1003.0
20191020195510 42 330 10.0 0.0 0.00 0.00 0.00 93 1003.0
20191020195010 42 330 10.0 0.0 0.00 0.00 0.00 93 1003.0
20191020191509 42 320 8.0 0.0 0.00 0.00 0.00 93 1002.0
20191020191010 42 320 8.0 0.0 0.00 0.00 0.00 93 1002.0
20191020190701 42 320 8.0 0.0 0.00 0.00 0.00 93 1002.0
20191020185509 42 320 8.0 0.0 0.00 0.00 0.00 93 1002.0
20191020184510 44 310 13.0 0.0 0.00 0.00 0.00 81 1001.0
20191020184140 44 310 13.0 0.0 0.00 0.00 0.00 81 1001.0
20191020183511 44 310 13.0 0.0 0.00 0.00 0.00 81 1001.0
20191020182011 44 310 13.0 0.0 0.00 0.00 0.00 81 1001.0
20191020180640 42 330 10.0 0.0 0.00 0.00 0.00 81 1001.0
20191020180010 42 330 10.0 0.0 0.00 0.00 0.00 81 1001.0
20191020175011 42 330 10.0 0.0 0.00 0.00 0.00 81 1001.0
20191020174011 42 330 10.0 0.0 0.00 0.00 0.00 81 1001.0
20191020173510 42 330 10.0 0.0 0.00 0.00 0.00 81 1001.0
20191020173011 42 330 10.0 0.0 0.00 0.00 0.00 81 1001.0
20191020170531 42 320 7.0 0.0 0.00 0.00 0.00 81 1001.0
20191020165641 42 320 7.0 0.0 0.00 0.00 0.00 81 1001.0
20191020165031 42 320 7.0 0.0 0.00 0.00 0.00 81 1001.0
20191020164511 42 320 7.0 0.0 0.00 0.00 0.00 81 1001.0
20191020164031 42 320 7.0 0.0 0.00 0.00 0.00 81 1001.0
20191020162012 42 320 7.0 0.0 0.00 0.00 0.00 81 1001.0
20191020161642 42 320 7.0 0.0 0.00 0.00 0.00 81 1001.0
20191020161311 42 320 7.0 0.0 0.00 0.00 0.00 81 1001.0
20191020160510 41 310 7.0 0.0 0.00 0.00 0.00 80 1001.0
20191020155511 41 310 7.0 0.0 0.00 0.00 0.00 80 1001.0
20191020154011 41 310 7.0 0.0 0.00 0.00 0.00 80 1001.0
20191020153510 41 310 7.0 0.0 0.00 0.00 0.00 80 1001.0
20191020152510 41 310 7.0 0.0 0.00 0.00 0.00 80 1001.0
20191020151509 41 310 7.0 0.0 0.00 0.00 0.00 80 1001.0
20191020151010 41 310 7.0 0.0 0.00 0.00 0.00 80 1001.0
20191020150510 41 310 7.0 0.0 0.00 0.00 0.00 80 1001.0
20191020150011 39 300 10.0 0.0 0.00 0.00 0.00 86 1000.0
20191020145640 39 300 10.0 0.0 0.00 0.00 0.00 86 1000.0
20191020145029 39 300 10.0 0.0 0.00 0.00 0.00 86 1000.0
20191020144011 39 300 10.0 0.0 0.00 0.00 0.00 86 1000.0
20191020142509 39 300 10.0 0.0 0.00 0.00 0.00 86 1000.0
20191020141639 39 300 10.0 0.0 0.00 0.00 0.00 86 1000.0
20191020140640 39 300 8.0 0.0 0.00 0.00 0.00 80 1000.0
20191020140029 39 300 8.0 0.0 0.00 0.00 0.00 80 1000.0
20191020135010 39 300 8.0 0.0 0.00 0.00 0.00 80 1000.0
20191020134510 39 300 8.0 0.0 0.00 0.00 0.00 80 1000.0
20191020133510 39 300 8.0 0.0 0.00 0.00 0.00 80 1000.0
20191020133011 39 300 8.0 0.0 0.00 0.00 0.00 80 1000.0
20191020131510 39 300 8.0 0.0 0.00 0.00 0.00 80 1000.0
20191020130013 39 290 7.0 0.0 0.00 0.00 0.00 80 1000.0
20191020125510 39 290 7.0 0.0 0.00 0.00 0.00 80 1000.0
20191020125141 39 290 7.0 0.0 0.00 0.00 0.00 80 1000.0
20191020124511 39 290 7.0 0.0 0.00 0.00 0.00 80 1000.0
20191020124011 39 290 7.0 0.0 0.00 0.00 0.00 80 1000.0
20191020123510 39 290 7.0 0.0 0.00 0.00 0.00 80 1000.0
20191020123010 39 290 7.0 0.0 0.00 0.00 0.00 80 1000.0
20191020122511 39 290 7.0 0.0 0.00 0.00 0.00 80 1000.0
20191020122140 39 290 7.0 0.0 0.00 0.00 0.00 80 1000.0
20191020121510 39 290 7.0 0.0 0.00 0.00 0.00 80 1000.0
20191020120142 37 260 5.0 0.0 0.00 0.00 0.00 86 1000.0
20191020115510 37 260 5.0 0.0 0.00 0.00 0.00 86 1000.0
20191020115011 37 260 5.0 0.0 0.00 0.00 0.00 86 1000.0
20191020113511 37 260 5.0 0.0 0.00 0.00 0.00 86 1000.0
20191020112530 37 260 5.0 0.0 0.00 0.00 0.00 86 1000.0
20191020112011 37 260 5.0 0.0 0.00 0.00 0.00 86 1000.0
20191020110510 37 280 6.0 0.0 0.00 0.00 0.00 86 999.0
20191020110010 37 280 6.0 0.0 0.00 0.00 0.00 86 999.0
20191020105011 37 280 6.0 0.0 0.00 0.00 0.00 86 999.0
20191020104511 37 280 6.0 0.0 0.00 0.00 0.00 86 999.0
20191020103512 37 280 6.0 0.0 0.00 0.00 0.00 86 999.0
20191020101511 37 280 6.0 0.0 0.00 0.00 0.00 86 999.0
20191020095511 37 270 5.0 0.0 0.00 0.00 0.00 86 999.0
20191020095011 37 270 5.0 0.0 0.00 0.00 0.00 86 999.0